STARLINK-36722, 67917

Orbit data source: Space-Track

STARLINK-36722, 67917 is a payload satellite owned by SpaceX/Seattle (US) in LEO that was launched on Sun, 22 Feb 2026 UTC via an FALCON 9 launch vehicle from the Air Force Eastern Test Range (AFETR). Payload-class satellites include a variety of spacecraft equipped with specific instruments for various scientific and technological missions. These include communications satellites like Starlink; space stations such as the ISS; scientific satellites like the Hubble; Earth observation satellites from companies like Planet Labs, Umbra, and HawkEye 360; GPS; miniature CubeSats for education and research; and military/defense satellites.

Loading next visibility...
Identifier
67917, 2026-036P
Orbit
LEO
Country
Flag of USUS
Related business
Manufacturer
SpaceX/Seattle
Mission
Operational spacecraft
Bus & Motor
STARLINK V2MO, Unknown motor
Mass
575 kg wet, ~530 kg dry
Launch date (UTC)
2026-02-22 (2 months ago)
Launch vehicle
FALCON 9
Launch site
Air Force Eastern Test Range (AFETR)
Object type
Payload
Rocket body
Debris
Shape & HBR
Unknown shape, 17.7 m
Radar Cross Section
RCS unknown

Expand to show TLE details & history
Last TLE update: 12 hours ago

TLE from 12 hours ago
0 STARLINK-36722
1 67917U 26036P   26104.18124349  .00008797  00000-0  32875-3 0  9991
2 67917  43.0010  44.4976 0001184 270.3443  89.7273 15.27588268  9154
Epoch: 2026-04-14T04:20Z
TLE epoch observation values (Epoch: 2026-04-14T04:20:59.437Z)
Latitude
-0.00002°
Longitude
136.88875°
Altitude
482.796 km
Speed
7.626 km/s
True Right ascension
02h 57m 59s
True Declination
0° 00' 00"
Sunlit
Object was in daylight at epoch
Visualization orbit readout
Latitude
Unknown
Longitude
Unknown
Altitude
Unknown
Speed
Unknown
Apparent Right ascension
Unknown
Apparent Declination
Unknown
Sunlit
N/A
Visualization observer readout
Local Sidereal Time
23:08:52
Azimuth
Unknown
Elevation
Unknown
Doppler factor
Unknown
Orbital elements
Apogee altitude
485.782 km
Perigee altitude
484.157 km
Semi-major axis
6,863.106 km
Eccentricity
0.00012
Inclination
43.001°
RAAN
44.4976°
Arg. of periapsis
270.3443°
True anomaly
89.74087°
Mean anomaly
89.7273°
Eccentric anomaly
89.73408°
Mean motion
3.81735 °/min
Orbital period
94.31 mins
BSTAR
0.00032875
Loading maneuver chart data...
Computing Atmospheric mass density...
Loading historical data...
Loading historical data...
Loading historical data...
Loading historical data...
Loading historical data...
Loading historical data...
Loading historical data...

Documentation

Showing up to 5 results
|